Location: Unspecified
(44.4377°N, 88.0525°W)
Time: 03:33:30
(UTC-05:00)

Cosmos 2058 - Visible Passes

Search period start: 24 August 2016 00:00
Search period end: 03 September 2016 00:00
Orbit: 565 x 585 km, 82.5° (Epoch: 23 August)

Date Brightness Start Highest point End Pass type
(mag) Time Alt. Az. Time Alt. Az. Time Alt. Az.
24 Aug 5.5 01:36:10 10° N 01:37:23 19° N 01:37:23 19° N visible
25 Aug 5.6 01:39:47 10° NNW 01:40:46 17° NNW 01:40:46 17° NNW visible
26 Aug 5.7 01:43:28 10° NNW 01:44:09 14° NNW 01:44:09 14° NNW visible
27 Aug 5.9 00:11:06 10° NNE 00:11:20 11° NNE 00:11:20 11° NNE visible
27 Aug 5.8 01:47:12 10° NNW 01:47:34 12° NNW 01:47:34 12° NNW visible
28 Aug 5.9 00:14:20 10° NNE 00:14:45 12° NNE 00:14:45 12° NNE visible
29 Aug 5.9 00:17:41 10° NNE 00:18:11 13° NNE 00:18:11 13° NNE visible
30 Aug 5.9 00:21:07 10° N 00:21:37 13° N 00:21:37 13° N visible
31 Aug 6.0 00:24:35 10° N 00:25:04 13° N 00:25:04 13° N visible
01 Sep 6.0 00:28:08 10° N 00:28:31 12° N 00:28:31 12° N visible
02 Sep 6.1 00:31:44 10° N 00:31:59 12° N 00:31:59 12° N visible
